Location: Sevilla
(37.3933°N, 5.9839°W)
Time: 05:02:22
(UTC+02:00)

Vanguard 3 - Pass Details

Date: 01 July 2024
Orbit: 508 x 3231 km, 33.4° (Epoch: 15 July)

Event Time Altitude Azimuth Distance (km) Brightness Sun altitude
Rises 13:02:47 0° 278° (W) 5,644 11.2 66.8°
Reaches altitude 10° 13:07:21 10° 274° (W) 4,170 10.7 67.5°
Maximum altitude 13:16:51 45° 206° (SSW) 1,551 9.4 69.1°
Drops below altitude 10° 13:22:24 10° 134° (SE) 2,458 10.1 69.9°
Sets 13:24:28 0° 127° (SE) 3,172 10.5 70.2°
